Temp
70 73 74 73 74 55 63 65 58 63 65 65 54 51 52 51 47 53 48 53 55 57 67 71 67 70 73 78 80 81 81 81 80 79 80 81 81 82 82 81 82 82 82 82 83 83 83 83 82 81 80 81 80 79 79 78 78 78 78 78 78 78 78
72 77 74 75 76 67 62 58 64 67 70 67 59 47 47 46 44 44 48 53 52 55 54 62 68 67 69 73 77 81 81 81 79 80 80 81 81 82 82 82 82 83 83 82 83 84 84 83 83 82 81 81 81 80 80 79 78 77 78 79 78 78 78
65 73 72 69 75 78 71 66 73 66 51 54 55 50 45 41 41 40 46 49 52 51 55 58 67 68 65 69 74 77 79 80 79 80 80 81 82 82 81 81 81 81 82 82 83 84 85 84 83 83 82 82 81 81 81 81 79 79 79 80 79 79 79
60 64 67 58 63 72 76 72 70 67 60 59 53 56 46 49 38 44 43 48 54 57 61 63 70 70 69 68 69 74 78 79 80 80 81 81 81 81 82 82 82 82 83 84 84 84 84 84 83 83 83 83 82 82 81 80 81 80 80 79 79 78 79
60 52 61 62 65 62 63 65 63 64 63 61 63 55 53 51 35 37 39 45 48 52 59 67 70 70 71 70 70 73 77 79 81 81 81 81 81 81 82 82 82 82 83 84 84 85 85 85 84 84 84 83 82 82 81 81 80 80 79 80 79 79 79
45 52 62 65 65 67 66 64 63 65 61 54 54 50 56 49 50 38 39 46 48 58 68 72 72 73 74 72 73 73 76 79 80 81 82 82 81 82 82 83 83 83 83 83 84 85 85 84 84 83 84 83 83 82 82 81 81 81 80 79 79 79 79
46 54 61 64 63 62 63 67 65 68 64 57 54 44 48 56 55 51 47 46 56 63 67 72 74 77 80 76 74 75 77 79 81 82 83 83 83 83 83 83 84 84 83 83 84 83 83 84 83 83 83 83 83 82 82 82 81 81 81 81 80 79 79
51 55 59 61 62 63 62 65 67 67 64 66 65 60 51 56 51 55 50 48 54 58 59 67 74 76 78 77 75 76 78 79 81 82 82 81 81 82 84 84 85 84 83 83 82 81 82 82 82 82 83 83 83 83 83 82 81 81 82 81 81 80 79
46 57 59 59 61 63 58 56 62 68 71 70 61 55 52 58 54 58 48 47 59 61 60 62 64 68 72 74 75 77 77 78 80 81 81 82 81 81 82 82 82 82 82 81 80 81 81 81 83 82 83 83 83 83 83 83 82 83 82 82 81 80 80
33 39 40 38 37 44 51 55 58 63 68 66 59 56 52 51 50 54 51 55 59 61 64 69 67 66 68 71 73 77 80 79 80 81 81 80 80 80 81 81 81 80 81 81 80 80 81 82 83 82 82 83 83 83 83 84 83 82 82 83 82 81 80
33 36 38 46 50 48 44 50 53 54 57 66 67 53 48 52 44 53 57 60 61 67 72 73 75 65 67 70 68 74 76 78 80 80 80 80 80 79 80 80 81 80 79 79 79 80 81 82 83 83 83 83 83 82 82 84 84 83 82 82 81 81 80
42 45 45 49 50 44 46 46 48 54 57 59 64 61 59 53 50 49 52 52 62 68 72 73 73 67 64 64 67 73 76 77 79 80 79 80 80 80 80 80 79 79 79 79 79 79 81 82 82 83 83 84 83 83 82 83 84 83 83 82 81 80 80
46 48 48 49 49 49 49 51 52 54 59 59 60 64 59 58 59 56 52 51 58 68 74 77 72 66 70 71 70 75 79 79 79 78 78 79 79 79 79 79 79 79 79 78 78 79 80 82 81 82 83 83 83 83 83 83 84 83 83 82 81 80 80
43 45 46 49 48 49 53 54 56 57 58 59 61 64 59 65 58 60 58 54 62 71 74 75 74 66 67 67 69 71 73 76 77 78 77 79 79 79 79 79 80 80 80 79 79 79 79 80 81 82 82 82 83 83 83 84 83 84 83 81 80 80 79
40 44 48 51 51 51 49 54 56 55 57 60 63 65 61 62 61 61 59 57 60 67 62 62 61 61 65 66 68 73 76 76 77 78 78 79 79 79 80 79 80 80 80 80 79 79 79 80 81 82 82 82 83 84 84 84 83 84 83 81 80 80 79
36 44 47 47 49 49 49 52 52 53 53 57 61 60 57 58 58 58 58 53 59 59 61 64 63 63 62 64 65 69 71 76 77 77 78 79 78 79 80 80 81 80 80 78 78 78 80 81 81 82 81 82 83 83 83 84 84 85 83 82 80 80 80
32 42 45 45 45 47 45 47 50 52 54 56 58 57 57 55 55 56 56 58 59 56 62 65 63 64 64 64 62 62 68 69 76 78 79 79 80 80 79 80 80 80 80 79 79 80 81 82 82 83 83 83 82 83 83 83 84 84 82 82 81 80 80
32 41 43 44 41 38 39 52 57 54 54 54 52 51 53 57 57 52 55 59 60 60 62 63 62 64 64 64 66 66 64 65 69 76 77 80 81 81 81 82 81 81 81 80 81 81 81 82 84 84 84 84 84 84 84 83 83 82 82 81 81 80 80
30 39 41 39 38 39 52 58 58 57 58 58 55 55 57 57 58 58 58 59 60 62 64 64 65 67 68 70 70 70 70 67 69 69 70 71 74 77 78 79 80 79 79 79 79 79 81 83 83 83 83 84 82 82 82 82 82 82 82 81 81 81 80
37 36 34 34 40 48 55 57 57 58 59 57 56 55 57 58 58 58 56 59 63 65 65 67 68 69 70 71 71 72 73 72 70 70 70 70 73 72 72 74 73 75 76 77 80 80 81 82 82 84 83 84 84 83 82 82 82 82 81 81 81 80 80
29 35 35 36 45 48 50 49 50 51 48 50 49 46 54 58 60 59 57 59 61 63 66 66 69 69 71 67 68 73 73 73 74 73 72 73 72 72 72 74 73 73 75 77 77 78 78 80 80 82 82 83 83 81 81 82 81 81 81 80 80 80 81
39 32 32 32 37 37 41 48 53 56 58 57 57 53 53 60 62 62 60 59 59 61 63 64 64 67 66 61 63 70 73 74 74 75 75 75 75 75 74 74 75 75 75 76 77 78 77 77 78 80 81 82 81 80 80 80 81 80 81 81 81 81 81
36 34 29 30 31 38 43 46 51 56 58 57 57 53 50 59 61 63 61 60 60 61 62 63 65 65 60 59 63 69 71 72 73 72 73 74 74 74 75 75 75 75 75 76 76 75 75 74 73 76 81 81 81 80 80 80 81 81 81 82 82 82 82
35 34 32 28 36 32 43 49 54 56 58 58 53 44 45 57 60 62 62 61 61 62 63 65 66 64 59 60 64 70 71 72 72 71 71 71 73 73 74 74 74 75 76 76 74 73 73 72 73 75 77 80 81 80 80 81 81 82 82 83 84 84 84
36 37 36 37 39 46 50 51 54 57 59 57 47 40 48 57 59 62 62 61 63 64 63 64 60 62 65 66 69 70 70 70 70 72 73 72 73 72 73 73 76 74 74 73 72 72 72 73 74 74 76 77 76 76 76 76 79 81 81 81 82 82 82
32 35 34 35 39 46 52 53 55 58 56 44 42 51 56 56 57 62 62 61 62 63 63 63 63 65 67 68 68 68 68 67 68 70 71 72 72 73 74 75 74 73 73 72 73 73 73 74 74 74 75 75 73 73 72 73 73 74 75 78 79 78 79
38 38 36 35 30 44 53 53 54 54 46 46 53 55 56 57 58 59 60 60 60 62 62 64 65 65 66 66 66 66 67 67 66 67 67 68 69 70 70 71 73 73 71 71 71 72 73 74 74 74 75 74 73 72 72 72 73 73 74 74 76 78 79
34 36 34 33 42 47 54 52 45 50 52 54 55 55 52 56 58 57 59 59 59 62 62 62 63 64 64 64 65 65 65 66 67 67 67 67 68 70 71 71 71 72 70 70 71 71 72 72 72 73 74 73 74 72 71 72 72 73 73 73 74 76 77
41 39 43 47 50 52 53 53 53 54 56 57 56 55 54 53 55 59 58 58 61 61 62 62 62 61 62 62 64 63 63 65 65 65 66 66 67 67 68 70 71 71 70 69 70 70 70 71 71 71 72 73 73 72 71 73 73 74 73 73 73 74 75
50 52 51 53 52 52 52 54 54 54 56 57 56 54 52 54 55 57 57 60 61 62 61 61 61 60 61 61 62 62 63 64 64 65 66 66 67 67 68 69 70 70 70 70 70 69 69 69 71 71 71 72 71 70 71 73 73 73 74 72 72 73 74
41 36 49 48 48 52 53 52 54 55 54 54 55 55 53 54 57 57 59 60 62 62 61 60 59 60 61 60 60 61 61 62 62 63 63 64 65 65 66 68 70 68 69 69 69 69 68 68 69 70 70 70 70 70 72 73 73 73 74 74 74 74 73
40 41 47 49 51 54 54 51 49 50 52 54 55 54 56 56 57 58 58 61 62 63 61 60 58 59 60 60 60 60 60 60 61 61 62 63 64 65 66 67 68 67 67 66 67 68 67 66 67 68 69 69 70 70 71 72 72 73 73 73 73 72 72
42 47 50 48 50 52 53 53 53 52 52 51 53 55 55 57 56 57 60 62 61 62 61 60 59 58 58 59 59 60 60 60 60 61 62 62 63 64 65 66 67 65 66 66 65 66 66 66 67 67 67 68 69 70 71 71 72 72 73 73 71 71 72
35 38 43 45 38 39 48 51 52 52 53 53 53 54 55 56 55 56 57 58 60 61 62 60 59 57 57 58 58 59 59 59 59 61 61 62 62 63 65 65 65 66 67 66 65 65 65 65 67 67 67 68 68 70 70 70 71 72 71 70 69 69 71
35 43 45 46 45 45 46 49 52 52 53 52 51 51 53 54 56 57 56 54 56 57 60 60 58 57 57 57 58 59 59 59 60 60 61 61 62 63 64 64 64 65 65 67 66 66 64 65 66 66 67 67 68 70 70 69 70 70 70 70 69 69 70
43 46 46 47 45 43 47 50 51 51 52 52 52 53 54 55 56 57 56 55 55 55 58 59 59 58 58 58 58 58 59 59 60 62 62 61 61 63 63 63 63 64 65 64 66 66 65 66 65 66 66 67 67 69 70 70 69 69 69 69 68 68 69
41 47 48 48 47 48 49 50 50 51 53 54 51 51 53 55 56 58 56 56 57 57 56 56 58 59 58 58 58 58 58 59 60 63 64 64 64 64 63 64 65 65 65 64 63 64 65 66 67 66 66 67 67 68 69 70 68 69 69 69 68 68 69
MSLP
1001.63 1001.47 1001.55 1002.23 1002.15 1008.19 1005.07 1005.71 1007.55 1005.39 1003.83 1005.91 1007.87 1008.55 1008.31 1008.27 1008.19 1008.39 1005.51 1005.19 1005.15 1002.43 1001.15 999.43 1000.39 1000.87 1001.03 1000.35 1000.23 1000.31 1000.55 1000.87 1001.55 1002.47 1002.63 1002.67 1002.63 1002.75 1002.95 1003.19 1003.35 1003.43 1003.71 1003.91 1003.95 1004.39 1004.87 1005.35 1005.87 1006.15 1006.47 1006.83 1007.31 1007.91 1008.51 1009.07 1009.39 1009.67 1009.99 1010.23 1010.63 1010.95 1011.31
1001.39 1000.31 1000.67 1001.31 1001.31 1001.95 1004.47 1007.15 1004.71 1003.47 1002.71 1004.07 1007.23 1010.51 1008.99 1009.15 1010.31 1008.19 1006.51 1006.39 1005.31 1005.19 1005.59 1000.27 1000.55 1001.51 1001.47 1001.27 1000.63 1000.19 999.99 1000.15 1001.39 1001.67 1001.83 1001.99 1002.19 1002.15 1002.07 1002.15 1002.23 1002.47 1002.83 1003.15 1003.55 1003.83 1004.07 1004.43 1004.83 1005.43 1005.91 1006.19 1006.71 1007.23 1007.79 1008.55 1009.07 1009.55 1009.67 1009.91 1010.31 1010.59 1011.07
1002.83 1000.87 1001.23 1002.43 1001.15 1000.51 1002.83 1003.83 1001.43 1005.39 1008.83 1009.27 1006.55 1008.23 1011.11 1010.87 1010.67 1009.07 1006.07 1006.39 1004.71 1004.71 1003.47 1001.19 1001.07 1000.83 1001.83 1001.51 1000.71 1000.43 1000.39 1000.39 1000.67 1000.71 1000.87 1000.95 1001.11 1001.67 1002.19 1002.47 1002.79 1003.07 1003.27 1003.35 1003.31 1003.35 1003.47 1003.83 1004.23 1004.71 1005.27 1005.87 1006.47 1006.99 1007.39 1007.87 1008.43 1008.67 1009.07 1009.51 1009.87 1010.19 1010.51
1004.63 1003.43 1002.35 1005.63 1003.95 1001.55 1000.55 1000.79 1002.63 1001.71 1003.95 1005.99 1008.23 1006.79 1006.95 1007.19 1009.55 1008.99 1007.75 1005.99 1005.95 1003.55 1001.59 1000.55 999.99 999.27 1000.11 1001.15 1001.51 1000.99 1000.15 999.87 999.95 1000.27 1000.27 1000.47 1001.03 1001.39 1001.63 1002.07 1002.35 1002.31 1002.31 1002.43 1002.59 1002.87 1003.31 1003.67 1004.15 1004.63 1005.19 1005.71 1006.27 1006.63 1007.19 1007.67 1007.99 1008.43 1008.95 1009.35 1009.67 1010.15 1010.31
1004.63 1004.79 1002.79 1003.75 1002.95 1004.27 1003.91 1003.59 1003.91 1003.59 1003.39 1002.71 1003.39 1004.83 1005.63 1006.87 1008.31 1008.47 1008.07 1008.03 1004.51 1002.07 1000.23 999.31 998.71 998.43 998.79 999.99 1000.71 1000.39 999.87 999.31 999.11 999.23 999.51 999.91 1000.19 1000.55 1000.87 1001.19 1001.47 1001.63 1001.83 1002.07 1002.31 1002.43 1002.75 1003.23 1003.75 1004.39 1004.99 1005.51 1005.87 1006.31 1006.91 1007.27 1007.91 1008.43 1008.91 1009.11 1009.43 1009.75 1010.03
1007.75 1005.35 1002.15 1001.99 1002.51 1002.11 1002.67 1003.43 1003.79 1003.07 1004.39 1005.87 1007.39 1007.83 1004.63 1004.83 1006.23 1007.95 1007.87 1007.67 1003.87 999.99 1000.07 998.43 998.11 997.27 997.31 998.91 998.75 999.83 999.27 998.83 998.71 998.75 998.79 999.03 999.67 999.71 999.91 1000.19 1000.39 1000.87 1001.31 1001.63 1001.99 1002.43 1002.87 1003.47 1003.95 1004.31 1004.59 1005.07 1005.63 1006.07 1006.35 1006.91 1007.51 1008.03 1008.43 1008.87 1009.15 1009.43 1009.79
1008.39 1005.67 1003.19 1002.95 1003.75 1004.07 1003.99 1002.63 1002.83 1001.75 1002.31 1003.11 1005.19 1008.27 1006.11 1004.27 1004.43 1004.23 1005.31 1006.39 1003.03 998.15 997.03 997.67 997.55 997.15 996.71 997.35 998.15 998.55 998.43 998.23 998.15 998.11 998.03 998.23 998.39 998.83 999.23 999.55 999.91 1000.31 1000.75 1001.15 1001.63 1002.11 1002.51 1002.83 1003.19 1003.67 1004.19 1004.71 1005.15 1005.59 1006.07 1006.55 1007.11 1007.55 1007.83 1008.23 1008.55 1008.95 1009.43
1006.83 1004.83 1003.99 1003.47 1003.19 1003.43 1003.39 1002.23 1001.31 1001.59 1002.71 1002.07 1002.39 1003.23 1003.79 1004.83 1004.75 1005.39 1005.59 1006.71 1002.19 997.63 997.15 996.83 996.75 996.59 996.55 996.91 997.43 997.67 997.87 997.79 997.55 997.51 997.79 998.19 998.55 998.51 998.51 998.75 999.23 999.71 1000.27 1000.91 1001.71 1002.39 1002.75 1003.03 1003.39 1003.59 1003.79 1004.23 1004.67 1005.15 1005.55 1006.11 1006.71 1007.07 1007.51 1007.91 1008.31 1008.83 1009.23
1005.75 1003.39 1002.23 1002.59 1002.03 1003.27 1004.43 1005.39 1003.31 1001.03 1000.43 1000.55 1001.39 1001.79 1002.59 1004.07 1004.11 1004.11 1005.91 1008.07 1002.75 997.71 996.91 997.63 998.03 997.31 997.19 997.19 997.43 996.99 997.27 997.27 997.11 997.23 997.39 997.55 997.83 998.19 998.63 999.07 999.43 999.95 1000.63 1001.27 1001.59 1001.71 1001.99 1002.35 1002.63 1003.03 1003.47 1003.87 1004.27 1004.75 1005.19 1005.71 1006.11 1006.51 1007.03 1007.43 1008.03 1008.47 1008.87
1009.59 1007.35 1006.87 1007.91 1010.03 1009.31 1007.67 1005.79 1004.51 1003.03 1001.15 1001.19 1002.51 1003.87 1004.07 1005.03 1003.63 1003.59 1004.79 1004.31 1000.59 998.75 997.51 996.91 996.99 997.31 996.99 997.11 997.07 996.75 996.19 996.35 996.71 996.79 997.07 997.47 997.83 998.15 998.35 998.75 999.35 1000.03 1000.31 1000.59 1000.91 1001.19 1001.59 1001.91 1002.23 1002.59 1002.99 1003.43 1003.91 1004.35 1004.75 1004.95 1005.67 1006.23 1006.67 1007.07 1007.59 1008.15 1008.55
1013.19 1011.59 1011.75 1010.35 1009.95 1009.59 1009.51 1006.67 1006.43 1005.71 1004.71 1001.79 1000.51 1001.75 1003.51 1004.55 1003.71 1004.19 1002.27 1001.67 1001.15 999.67 998.07 997.43 996.67 997.43 997.15 996.39 997.19 996.63 996.47 996.15 995.75 995.87 996.39 997.03 997.47 997.83 998.23 998.59 998.83 999.23 999.95 1000.35 1000.55 1000.83 1001.03 1001.35 1001.75 1002.19 1002.63 1003.11 1003.55 1004.03 1004.51 1004.75 1005.11 1005.67 1006.19 1006.71 1007.19 1007.75 1008.19
1011.95 1011.19 1010.71 1009.43 1009.95 1010.55 1009.19 1009.35 1007.19 1005.23 1004.63 1003.79 1001.79 1001.87 1002.31 1001.23 1003.07 1004.67 1001.83 1001.35 1001.67 999.83 997.83 997.31 996.79 996.79 995.99 996.27 996.59 996.31 995.75 995.55 995.71 995.83 996.15 996.43 996.99 997.43 997.83 998.39 998.95 999.39 999.51 999.79 1000.31 1000.63 1000.87 1001.19 1001.47 1001.95 1002.27 1002.63 1003.11 1003.63 1004.11 1004.35 1004.71 1005.27 1005.75 1006.31 1006.87 1007.35 1007.83
1011.15 1010.55 1010.07 1009.43 1009.35 1008.99 1008.39 1007.43 1006.71 1005.43 1003.43 1003.35 1003.11 1000.55 1000.27 1000.55 1001.95 1002.95 1001.31 1000.99 1001.15 999.03 997.39 996.11 996.27 996.27 995.63 995.27 995.83 995.51 994.51 994.59 995.07 995.67 996.39 996.75 997.07 997.51 998.03 998.31 998.55 998.87 999.35 999.67 1000.03 1000.35 1000.55 1000.87 1001.43 1001.79 1002.15 1002.55 1002.91 1003.35 1003.71 1004.07 1004.39 1004.75 1005.03 1005.79 1006.39 1006.87 1007.31
1011.19 1010.03 1009.55 1008.99 1008.99 1008.03 1006.75 1006.03 1004.99 1004.35 1003.59 1002.79 1002.31 1000.71 1000.23 999.19 999.83 999.63 999.83 1000.15 999.43 997.75 996.39 995.99 995.87 996.07 995.83 995.35 995.75 995.79 995.67 995.35 995.27 995.75 996.27 996.55 996.87 997.35 997.67 997.95 998.15 998.35 998.55 999.03 999.47 999.83 1000.27 1000.71 1001.11 1001.55 1001.95 1002.23 1002.47 1002.87 1003.23 1003.47 1003.87 1004.15 1004.71 1005.39 1005.95 1006.43 1006.83
1010.59 1009.31 1008.39 1007.63 1007.63 1007.43 1007.43 1005.15 1004.55 1004.35 1003.39 1001.83 1000.95 1000.39 1000.35 999.35 999.59 999.95 1000.15 999.87 999.39 996.95 996.47 996.27 996.27 996.23 996.59 995.99 995.63 995.75 994.95 994.95 995.35 995.75 996.19 996.43 996.71 996.91 997.03 997.35 997.71 997.91 998.27 998.67 999.19 999.71 1000.07 1000.35 1000.67 1000.99 1001.27 1001.51 1001.91 1002.35 1002.71 1003.11 1003.47 1003.67 1004.19 1005.03 1005.51 1005.91 1006.39
1011.23 1008.95 1008.35 1008.15 1007.43 1007.39 1006.71 1005.07 1004.91 1004.23 1003.03 1000.55 999.95 1000.43 1001.79 999.87 999.83 999.71 1000.27 1001.43 1000.15 997.39 996.67 996.99 996.67 996.55 996.87 996.83 996.27 996.19 995.51 994.91 995.07 995.59 995.95 996.23 996.47 996.71 996.91 997.07 997.31 997.83 998.27 998.87 999.31 999.59 999.75 999.91 1000.19 1000.55 1000.99 1001.31 1001.71 1002.03 1002.23 1002.67 1002.95 1003.31 1003.95 1004.55 1005.15 1005.59 1005.87
1011.83 1009.59 1009.15 1008.79 1008.35 1006.35 1004.87 1005.67 1006.03 1005.31 1003.51 1001.87 1001.63 1002.55 1002.91 1003.19 1002.39 1000.15 1000.59 999.63 998.67 998.51 997.99 996.59 997.27 997.43 997.83 997.23 996.87 996.27 995.83 995.35 994.99 995.07 995.39 995.55 995.79 996.15 996.47 996.87 997.19 997.51 997.95 998.27 998.59 998.87 999.15 999.43 999.79 999.87 1000.11 1000.75 1001.19 1001.27 1001.83 1002.07 1002.51 1003.15 1003.67 1004.15 1004.75 1005.19 1005.43
1011.15 1010.07 1009.39 1008.59 1007.75 1006.67 1006.19 1004.59 1004.71 1005.07 1004.67 1004.11 1003.67 1004.87 1004.67 1003.43 1002.63 1002.23 1001.27 1000.51 999.47 998.71 998.19 998.23 998.31 998.71 999.03 998.43 997.55 996.91 996.15 995.59 995.47 995.11 995.07 995.07 995.19 995.51 995.83 996.11 996.51 996.83 997.19 997.63 997.95 998.11 998.39 998.63 998.75 999.03 999.43 999.83 1000.11 1000.47 1001.15 1001.79 1002.35 1002.83 1003.39 1003.87 1004.23 1004.63 1004.91
1012.39 1010.59 1009.43 1007.07 1007.03 1006.39 1004.15 1003.67 1004.31 1004.55 1003.75 1003.79 1003.79 1003.99 1003.71 1003.27 1002.43 1001.91 1001.11 1000.23 999.75 998.83 998.99 999.47 998.87 998.31 998.11 997.35 997.31 996.87 996.39 995.95 995.55 995.47 995.43 995.47 995.51 995.79 995.99 996.31 996.51 996.79 996.99 997.35 997.83 998.31 998.55 998.55 998.87 999.39 999.87 1000.03 1000.55 1001.11 1001.39 1001.91 1002.15 1002.67 1003.03 1003.47 1003.87 1004.15 1004.55
1011.59 1011.15 1010.71 1008.07 1006.15 1005.15 1004.59 1003.99 1004.47 1004.11 1003.59 1004.03 1003.95 1003.15 1003.11 1002.95 1002.99 1002.79 1002.51 1001.19 1000.03 999.07 999.07 998.87 998.63 998.15 997.19 996.71 996.95 997.11 996.83 996.43 996.43 996.23 996.27 995.91 995.59 995.87 995.99 996.27 996.59 996.83 997.23 997.47 997.67 997.91 997.91 998.43 998.87 999.11 999.59 999.87 1000.47 1000.91 1001.07 1001.63 1002.03 1002.35 1002.71 1003.19 1003.51 1003.83 1004.27
1012.39 1011.03 1011.31 1009.71 1006.51 1005.75 1005.51 1005.91 1006.03 1006.43 1007.07 1006.27 1006.67 1006.83 1004.67 1003.63 1003.07 1002.75 1002.83 1001.75 1000.79 999.51 998.83 998.55 998.15 997.87 996.83 997.99 998.63 997.83 997.59 997.23 996.87 996.83 997.07 996.59 996.43 996.39 996.47 996.19 996.63 996.67 996.87 997.31 997.63 997.87 998.19 998.39 998.79 999.15 999.43 999.83 1000.35 1000.95 1001.39 1001.59 1001.87 1002.23 1002.59 1003.07 1003.31 1003.51 1003.83
1011.19 1012.35 1011.35 1009.43 1006.83 1007.03 1007.47 1007.47 1006.43 1005.87 1005.67 1005.47 1005.39 1006.03 1004.99 1003.27 1002.79 1002.39 1002.55 1002.51 1002.03 1000.59 999.55 999.03 998.59 998.27 998.63 1001.15 1001.11 999.47 998.47 997.91 997.71 997.15 996.99 996.71 996.55 996.59 996.71 996.71 996.87 996.99 997.19 997.35 997.51 997.75 998.27 998.55 998.63 998.83 999.15 999.67 1000.27 1000.87 1001.23 1001.43 1001.79 1002.15 1002.43 1002.71 1002.79 1003.07 1003.35
1011.79 1012.23 1012.15 1010.95 1008.99 1007.55 1008.71 1007.19 1006.11 1004.95 1005.03 1005.19 1005.11 1005.51 1005.87 1004.03 1003.47 1002.79 1002.75 1002.67 1001.95 1001.43 1000.71 999.79 998.67 999.51 1001.43 1002.95 1001.87 1000.23 999.39 998.83 998.31 998.19 997.91 997.59 997.31 997.15 997.07 996.99 997.35 997.47 997.63 997.75 998.11 998.31 998.59 999.07 999.03 998.67 998.71 999.27 999.99 1000.67 1000.95 1001.27 1001.51 1001.87 1002.07 1002.11 1002.31 1002.63 1002.83
1011.83 1011.47 1011.51 1011.35 1009.39 1009.71 1008.11 1007.11 1005.47 1004.67 1004.11 1004.31 1005.39 1006.19 1006.99 1005.27 1004.19 1003.31 1003.15 1002.87 1002.31 1001.71 1000.71 1000.55 1000.43 999.99 1002.03 1002.95 1002.03 1000.35 999.79 999.27 998.91 998.71 998.75 998.47 998.07 997.83 997.63 997.51 997.47 997.67 997.67 997.79 998.47 998.95 999.31 999.47 998.99 998.79 998.87 999.27 999.79 1000.31 1000.67 1000.83 1001.31 1001.47 1001.43 1001.39 1001.35 1001.51 1001.79
1011.07 1010.95 1010.59 1009.55 1009.11 1008.63 1007.91 1007.11 1005.79 1004.43 1003.35 1003.55 1005.43 1007.55 1007.31 1005.55 1004.71 1003.99 1003.55 1003.19 1002.59 1002.11 1002.03 1001.63 1001.91 1001.95 1001.47 1001.51 1000.91 1000.35 999.99 999.71 999.43 998.99 998.75 998.83 998.63 998.51 998.31 998.27 997.79 997.91 998.23 998.55 999.15 999.39 999.55 999.39 999.11 999.03 999.11 999.63 1000.19 1000.39 1000.63 1000.95 1001.11 1001.07 1000.91 1000.91 1001.11 1001.31 1001.55
1011.31 1010.91 1010.95 1009.91 1009.03 1008.83 1008.03 1006.67 1005.87 1004.27 1003.59 1006.71 1008.19 1007.51 1006.75 1006.23 1005.35 1004.31 1003.79 1003.67 1003.23 1002.79 1002.79 1002.59 1002.23 1001.91 1001.35 1001.11 1000.87 1000.71 1000.59 1000.51 1000.31 999.87 999.55 999.27 999.03 998.75 998.67 998.55 998.43 998.55 998.67 998.91 999.11 999.31 999.35 999.31 999.31 999.39 999.43 1000.03 1000.47 1000.63 1000.95 1001.23 1001.19 1000.95 1000.87 1000.87 1000.99 1001.31 1001.63
1009.59 1009.59 1009.63 1009.79 1010.47 1008.51 1008.11 1007.31 1005.87 1005.83 1006.95 1008.51 1007.99 1007.27 1006.83 1006.43 1005.75 1004.91 1004.23 1004.07 1003.99 1003.47 1003.35 1002.87 1002.51 1001.99 1001.79 1001.75 1001.67 1001.43 1001.15 1000.99 1000.95 1000.75 1000.43 1000.19 999.99 999.83 999.59 999.31 999.03 998.71 999.03 999.27 999.47 999.63 999.59 999.55 999.55 999.63 999.75 1000.35 1000.79 1000.95 1001.35 1001.59 1001.31 1001.11 1001.07 1001.03 1000.99 1001.03 1001.27
1010.83 1010.31 1010.95 1011.43 1010.11 1009.47 1008.51 1008.03 1008.63 1008.63 1008.79 1008.27 1007.79 1007.59 1007.63 1006.55 1005.99 1005.51 1004.87 1004.51 1004.31 1003.91 1003.67 1003.59 1003.11 1002.63 1002.43 1002.31 1002.11 1001.91 1001.71 1001.47 1001.27 1000.95 1000.79 1000.59 1000.35 1000.07 999.79 999.63 999.51 999.11 999.23 999.39 999.63 999.79 999.79 999.75 999.75 999.83 999.95 1000.63 1000.91 1001.15 1001.47 1001.23 1001.07 1000.95 1000.87 1000.87 1000.95 1001.07 1001.15
1011.03 1010.71 1010.35 1010.11 1009.43 1009.15 1008.99 1008.79 1008.91 1008.47 1008.15 1007.87 1007.79 1007.99 1007.91 1007.43 1006.55 1005.71 1005.35 1005.07 1004.47 1004.27 1003.99 1003.67 1003.67 1003.39 1003.15 1003.11 1002.79 1002.71 1002.51 1002.11 1001.87 1001.63 1001.47 1001.27 1001.07 1000.79 1000.55 1000.27 999.87 999.59 999.59 999.71 999.79 999.95 999.95 999.91 999.87 999.95 1000.03 1000.43 1000.75 1001.11 1001.11 1000.79 1000.87 1000.83 1000.79 1000.79 1000.87 1001.03 1001.07
1010.23 1009.31 1009.55 1009.55 1009.43 1009.27 1009.27 1008.91 1008.95 1008.79 1008.55 1008.07 1007.99 1008.59 1008.59 1007.79 1006.95 1006.39 1006.19 1005.35 1004.83 1004.47 1004.23 1004.23 1004.03 1004.07 1003.87 1003.47 1003.27 1003.07 1002.91 1002.67 1002.27 1001.87 1001.63 1001.39 1001.19 1000.99 1000.71 1000.47 1000.19 1000.03 999.83 999.71 999.79 1000.03 1000.15 1000.11 1000.15 1000.19 1000.31 1000.43 1000.95 1001.19 1000.87 1000.75 1000.71 1000.71 1000.55 1000.63 1000.79 1000.91 1000.99
1011.15 1011.27 1009.67 1009.63 1009.83 1009.27 1009.19 1009.27 1009.23 1009.39 1009.35 1009.07 1008.51 1008.67 1008.87 1008.27 1007.15 1006.51 1006.11 1005.75 1005.15 1004.91 1004.79 1004.99 1004.83 1004.35 1003.95 1003.87 1003.79 1003.63 1003.35 1003.11 1002.91 1002.63 1002.43 1002.19 1001.91 1001.71 1001.47 1001.11 1000.67 1000.51 1000.35 1000.35 1000.35 1000.43 1000.63 1000.51 1000.43 1000.43 1000.51 1000.59 1000.79 1000.75 1000.75 1000.67 1000.67 1000.63 1000.55 1000.51 1000.63 1000.71 1000.87
1011.59 1010.43 1009.99 1009.83 1009.47 1008.79 1009.11 1009.27 1009.63 1009.63 1009.55 1009.03 1008.67 1008.47 1008.51 1008.35 1007.67 1007.03 1006.63 1006.03 1005.59 1005.35 1005.39 1005.43 1005.39 1005.03 1004.51 1004.15 1003.87 1003.67 1003.71 1003.63 1003.35 1003.07 1002.83 1002.63 1002.23 1001.87 1001.67 1001.39 1001.15 1000.95 1000.91 1000.95 1000.99 1000.95 1001.07 1000.95 1000.75 1000.71 1000.67 1000.71 1000.67 1000.63 1000.63 1000.63 1000.63 1000.63 1000.67 1000.67 1000.63 1000.71 1000.79
1011.51 1010.51 1009.79 1009.83 1008.67 1008.43 1008.83 1008.95 1009.31 1009.39 1009.31 1009.43 1008.87 1008.51 1008.47 1008.43 1008.07 1007.51 1006.79 1006.39 1006.27 1006.07 1006.11 1005.83 1005.75 1005.55 1005.15 1004.79 1004.39 1004.03 1003.79 1003.59 1003.55 1003.47 1003.19 1002.87 1002.63 1002.31 1002.03 1001.75 1001.51 1001.55 1001.27 1001.19 1001.15 1001.11 1001.15 1000.95 1000.67 1000.63 1000.63 1000.55 1000.51 1000.47 1000.51 1000.55 1000.55 1000.67 1000.79 1000.71 1000.59 1000.59 1000.67
1012.91 1011.47 1010.55 1011.31 1011.71 1009.95 1008.99 1008.75 1009.35 1009.59 1009.47 1009.47 1009.43 1009.03 1008.83 1008.59 1008.43 1007.95 1007.71 1007.03 1006.43 1006.39 1006.43 1006.51 1006.31 1006.19 1005.75 1005.23 1004.99 1004.55 1004.31 1004.11 1003.91 1003.55 1003.27 1002.99 1002.79 1002.55 1002.27 1001.99 1001.75 1001.51 1001.35 1001.15 1001.15 1001.15 1001.07 1000.87 1000.71 1000.75 1000.75 1000.67 1000.55 1000.51 1000.51 1000.47 1000.43 1000.59 1000.75 1000.79 1000.71 1000.71 1000.71
1012.87 1011.39 1011.67 1011.95 1011.83 1010.99 1009.91 1009.27 1009.27 1009.63 1009.83 1009.87 1010.11 1010.03 1009.43 1008.83 1008.43 1008.27 1007.91 1007.55 1007.15 1006.87 1006.67 1006.63 1006.75 1006.59 1006.27 1005.59 1005.31 1004.91 1004.71 1004.35 1004.07 1003.95 1003.71 1003.35 1002.95 1002.67 1002.43 1002.23 1002.03 1001.99 1001.83 1001.55 1001.39 1001.43 1001.31 1001.11 1001.03 1000.99 1000.95 1000.87 1000.71 1000.59 1000.59 1000.47 1000.35 1000.47 1000.63 1000.87 1000.99 1000.79 1000.83
1012.71 1012.23 1011.87 1011.63 1011.59 1010.87 1009.23 1009.07 1009.47 1009.99 1010.07 1010.11 1009.87 1009.75 1009.55 1009.07 1008.43 1008.31 1008.11 1007.83 1007.71 1007.39 1007.11 1006.83 1006.79 1006.87 1006.51 1005.91 1005.59 1005.15 1004.83 1004.63 1004.39 1004.07 1003.87 1003.83 1003.55 1003.23 1002.95 1002.83 1002.71 1002.55 1002.31 1002.19 1001.87 1001.75 1001.51 1001.23 1001.07 1000.91 1000.91 1000.91 1000.95 1000.79 1000.67 1000.59 1000.47 1000.43 1000.59 1000.83 1001.15 1001.07 1000.91
1012.75 1011.51 1011.39 1011.11 1010.75 1009.99 1009.43 1009.23 1009.27 1009.47 1009.55 1009.51 1009.75 1009.59 1009.47 1009.19 1008.55 1008.19 1008.47 1008.43 1008.07 1007.87 1007.87 1007.55 1007.07 1006.99 1006.87 1006.15 1005.59 1005.15 1004.91 1004.63 1004.43 1004.23 1004.03 1003.91 1003.71 1003.43 1003.19 1002.87 1002.63 1002.51 1002.27 1001.99 1001.79 1001.51 1001.27 1000.91 1000.79 1000.87 1001.07 1001.19 1001.07 1000.99 1000.75 1000.71 1000.59 1000.59 1000.67 1000.75 1001.03 1001.35 1001.23
Wind_Speed
12 15 10 10 12 11 8 9 14 13 7 6 3 3 1 2 3 13 2 3 3 7 5 6 6 9 14 17 20 21 20 17 14 14 15 16 17 17 18 18 18 19 17 17 18 18 17 17 17 19 20 19 20 19 18 19 19 18 19 19 18 16 16
12 11 9 12 14 5 5 9 11 5 4 3 5 6 1 4 8 7 1 7 2 4 8 2 4 8 9 14 19 21 22 20 18 18 18 18 18 18 20 21 21 20 20 20 18 17 19 20 21 20 21 19 19 18 19 20 19 19 19 18 18 16 16
6 5 6 6 12 14 11 8 9 10 7 11 7 1 9 5 6 2 4 1 4 7 6 3 7 7 8 12 16 18 20 18 19 20 21 21 20 17 17 17 15 14 15 16 18 19 20 20 20 20 19 19 17 17 18 19 21 20 20 16 16 14 15
8 7 6 13 9 9 15 7 11 7 5 9 8 10 2 4 4 1 8 0 9 6 6 8 10 9 10 11 9 14 19 19 17 17 19 20 19 17 17 17 16 18 19 20 20 20 20 20 18 17 18 16 18 18 18 17 17 16 16 17 16 15 15
6 5 5 11 13 10 10 10 8 6 5 1 5 1 5 6 4 3 2 6 5 6 7 8 10 9 8 13 14 14 16 18 18 19 19 18 19 19 18 18 19 19 19 18 18 17 17 16 15 15 16 18 18 16 17 18 18 17 17 17 16 15 14
4 7 6 1 1 4 7 10 11 10 9 4 12 10 1 3 2 3 3 9 5 10 5 9 9 9 8 10 15 15 16 17 17 17 19 19 18 19 20 20 20 19 18 18 16 14 12 13 14 17 16 16 17 18 17 17 17 16 17 16 15 15 13
9 16 17 13 15 13 11 7 10 10 6 5 6 9 7 4 6 5 3 1 11 7 7 10 12 11 13 10 13 14 15 18 18 17 19 19 21 21 20 20 19 18 18 18 17 18 18 18 17 18 17 17 17 18 17 16 17 17 17 17 15 14 14
12 17 15 15 13 7 6 7 7 8 11 11 12 8 5 7 2 7 5 4 12 6 4 7 7 9 10 7 13 15 13 13 16 19 18 18 17 18 19 18 18 17 16 15 13 14 14 14 15 17 17 16 16 17 17 16 18 18 16 15 14 14 14
8 10 2 3 5 3 3 6 7 8 12 13 3 5 2 7 8 8 6 11 14 5 2 1 1 4 4 5 9 14 15 13 15 16 15 16 18 18 17 17 16 14 13 15 15 17 17 17 16 16 16 17 16 16 16 16 17 17 16 14 14 15 15
8 11 10 2 7 8 11 7 6 10 12 13 5 8 3 9 5 7 7 11 14 8 6 8 6 5 6 7 6 11 14 16 16 15 15 14 16 16 18 17 16 16 17 16 16 16 16 16 16 16 16 16 16 15 17 16 15 15 15 14 14 14 14
9 7 8 8 7 10 6 13 15 17 15 10 11 5 6 11 4 8 10 11 10 15 14 13 15 4 7 8 7 14 14 13 16 16 16 15 15 16 17 17 17 16 16 18 18 18 18 17 16 15 15 16 15 15 16 16 15 15 15 15 15 15 15
12 12 14 17 14 16 17 14 18 17 12 11 12 14 13 7 9 10 4 5 9 17 18 15 16 7 6 6 6 12 13 14 15 15 15 15 16 14 14 14 16 18 19 18 17 17 17 16 16 14 14 15 15 15 16 16 15 15 13 15 15 15 15
10 14 19 17 14 14 14 15 16 18 17 10 11 17 7 11 10 12 4 6 8 18 18 19 10 5 8 9 11 15 17 15 13 12 14 15 16 15 15 16 17 18 18 17 17 17 18 17 16 16 14 14 13 13 13 14 14 16 15 15 16 16 15
14 16 13 13 13 12 12 14 15 17 17 16 14 12 7 15 8 8 8 9 15 17 17 12 9 5 8 5 4 3 2 9 13 13 14 17 16 16 18 17 18 18 19 18 18 18 17 18 17 16 15 15 15 16 16 16 16 15 15 16 16 16 16
14 12 8 6 8 9 11 8 8 10 12 15 14 10 7 8 3 1 5 8 13 10 2 4 3 3 3 1 4 11 13 11 12 13 14 14 15 16 18 17 18 18 18 17 17 17 17 18 18 18 17 16 15 16 15 15 16 15 15 15 15 16 16
9 6 7 16 15 12 9 4 16 19 15 3 5 4 3 5 7 3 2 4 10 8 4 1 3 5 5 2 1 6 7 9 12 14 14 14 14 15 16 17 17 16 15 13 14 16 17 18 18 16 15 14 15 16 15 15 15 14 14 15 15 15 14
8 6 10 16 16 9 3 6 12 13 11 4 12 8 11 8 4 4 9 10 2 5 5 1 4 6 6 6 4 2 4 4 10 15 15 16 16 16 16 16 16 15 15 16 17 17 16 17 17 17 17 16 17 16 15 15 13 14 14 14 14 14 14
7 13 15 12 1 1 2 2 10 13 10 14 14 7 8 10 6 2 4 8 8 4 4 1 6 8 6 3 5 3 1 4 5 7 9 12 14 15 16 16 17 16 14 13 14 16 17 17 18 17 16 18 17 15 14 12 14 14 14 14 14 15 15
6 10 13 3 4 7 1 6 9 13 9 9 4 11 11 13 15 15 10 6 2 4 5 2 6 10 8 12 15 14 11 4 1 3 4 5 6 8 10 10 10 10 13 13 12 11 12 13 11 9 9 9 6 8 10 12 13 13 14 14 14 14 14
4 4 5 3 8 4 4 3 7 15 3 6 9 4 17 16 15 12 9 9 5 5 4 3 1 5 12 17 18 15 14 11 5 5 4 5 7 7 6 8 7 8 8 10 12 13 9 9 9 10 10 9 10 11 10 12 12 13 13 14 14 13 13
2 3 6 8 7 8 6 4 10 13 10 13 11 6 9 13 13 13 11 11 10 7 1 2 2 4 11 18 14 15 14 13 10 10 7 8 10 9 7 9 8 7 8 8 7 6 6 7 8 8 8 9 9 9 10 11 11 11 12 13 13 13 14
0 4 6 6 1 5 2 7 12 5 6 9 8 5 5 13 17 15 13 11 11 9 9 8 7 10 14 13 10 12 13 11 11 12 11 11 11 11 12 11 11 11 10 9 8 10 9 7 8 9 9 10 10 10 11 10 11 11 12 13 13 13 13
5 3 1 2 1 1 3 16 18 17 6 9 6 4 7 10 16 16 13 12 12 9 8 8 3 5 13 4 7 8 9 11 11 12 11 11 12 12 11 13 14 13 12 12 11 10 9 8 2 7 12 14 12 12 11 11 11 12 13 13 13 13 13
5 3 3 3 2 2 11 18 18 19 15 7 3 2 5 11 16 15 14 12 13 12 12 8 9 11 15 5 5 7 8 8 10 11 12 11 11 12 11 12 12 12 12 15 14 13 10 6 3 5 7 9 11 11 11 11 12 13 13 13 14 13 14
5 5 4 3 2 2 10 17 20 18 15 4 3 7 2 10 12 13 12 13 13 12 11 8 11 10 9 7 7 8 9 11 12 12 11 10 9 11 11 10 10 14 14 14 13 11 7 6 6 5 7 7 5 5 6 6 10 9 5 5 6 8 9
4 4 3 5 2 2 10 17 16 16 5 7 6 5 8 9 10 11 13 13 14 12 10 8 9 9 10 11 11 12 12 12 10 11 11 11 12 10 9 10 10 12 12 13 13 12 10 10 9 7 8 9 6 6 5 2 1 2 2 4 5 5 7
1 0 2 2 2 2 11 18 7 18 8 5 4 5 6 8 9 11 12 13 13 12 10 9 9 11 13 12 12 12 12 12 12 11 12 11 11 10 9 11 8 11 12 13 12 10 9 9 9 8 10 10 7 6 7 2 3 3 3 4 5 8 9
2 3 4 3 5 7 8 10 8 5 5 3 6 6 7 10 8 9 9 12 12 12 11 10 11 13 13 13 11 12 12 12 11 12 12 11 10 10 9 8 7 9 12 11 11 9 8 8 8 8 10 8 6 6 5 3 3 2 3 3 5 6 8
2 2 4 5 4 2 5 6 7 8 9 8 9 9 8 9 9 9 7 11 12 13 12 12 12 12 12 10 10 11 11 11 11 11 11 11 10 9 8 8 8 8 10 10 10 10 8 9 8 8 7 9 7 8 5 4 4 4 3 1 4 5 6
11 1 5 2 5 4 5 6 7 8 9 9 9 10 10 10 10 9 8 10 11 12 13 11 11 11 9 11 11 11 11 11 11 11 11 12 11 11 9 9 8 7 8 9 10 10 10 8 8 6 6 7 7 3 3 4 4 4 4 1 3 4 4
7 0 6 7 8 3 4 7 9 9 9 9 9 6 6 10 12 12 11 10 10 11 12 12 11 13 12 10 8 7 9 11 10 10 10 9 9 9 10 8 6 7 7 8 9 9 9 6 6 6 5 5 4 3 4 4 4 4 4 2 2 2 4
3 4 7 4 5 1 6 7 6 7 9 12 10 9 7 7 10 10 10 10 10 10 11 11 9 10 11 12 12 10 7 7 8 9 9 10 10 10 8 8 6 5 6 6 6 6 6 4 4 4 4 4 4 4 3 3 4 3 3 1 1 2 2
8 9 4 8 8 0 8 8 8 7 8 9 13 12 12 8 9 11 12 11 8 8 9 9 9 9 10 9 9 10 10 10 9 9 9 8 7 7 9 8 7 5 3 4 4 5 4 3 4 4 4 4 4 4 4 3 3 4 4 3 1 1 1
6 2 2 11 7 8 6 2 8 7 8 9 11 13 13 11 7 9 10 13 13 10 7 7 8 8 8 8 7 8 8 8 8 10 10 9 8 8 6 6 7 7 5 3 4 4 4 4 4 5 4 4 4 3 3 3 3 5 3 4 3 2 1
10 9 11 10 11 15 16 16 5 7 7 8 8 11 12 13 8 6 8 11 13 14 12 7 7 8 7 8 6 6 6 8 8 5 7 10 10 9 8 7 9 7 6 2 1 2 2 2 4 3 4 3 4 5 4 3 3 3 3 3 2 1 1
18 16 13 10 10 13 14 10 7 7 4 6 8 7 9 12 9 5 4 5 8 10 11 11 7 7 9 7 5 5 6 4 8 9 6 4 4 5 4 4 4 4 5 3 0 0 0 1 3 4 4 4 4 4 4 4 2 3 4 3 2 1 2
13 12 13 14 14 17 15 16 14 10 6 3 5 12 10 7 7 5 3 1 3 7 8 10 11 9 8 9 6 5 4 4 4 6 8 6 5 5 5 5 6 5 4 3 2 0 1 3 5 5 5 4 5 4 4 3 2 3 3 3 2 1 1
Wind_Direction
198 204 184 196 167 206 187 174 207 213 89 169 235 293 268 105 110 237 115 276 287 306 328 232 138 149 194 205 208 206 207 201 186 193 197 199 197 194 193 195 197 196 191 192 191 188 187 186 185 188 188 186 187 186 187 189 190 188 190 190 190 191 192
232 214 183 195 196 150 115 197 210 86 122 128 187 215 285 200 205 250 95 207 246 157 231 285 183 146 193 192 207 208 208 200 184 193 195 197 197 197 195 196 197 194 191 191 189 189 188 187 188 188 188 187 187 186 187 188 188 190 192 190 190 190 190
280 274 198 224 212 191 208 220 121 172 169 204 204 145 235 211 225 262 291 204 230 183 234 213 216 185 178 198 200 206 212 204 194 192 195 197 197 194 196 198 196 194 195 194 192 192 191 190 188 188 186 184 185 188 189 189 190 191 189 189 190 191 190
326 318 184 211 213 218 216 115 177 169 147 213 171 204 167 132 250 197 277 302 227 208 215 193 199 207 180 182 190 201 207 206 200 197 196 194 192 192 193 193 194 195 196 196 195 191 189 188 187 187 183 183 186 188 187 191 194 191 188 189 188 190 192
316 240 183 210 203 195 208 198 195 187 206 209 154 184 159 202 187 196 198 258 264 250 220 182 201 211 203 167 183 197 203 206 200 194 195 194 192 191 191 191 194 196 196 196 197 195 190 186 184 181 182 186 187 186 189 190 190 189 191 191 189 192 189
305 261 250 60 353 246 220 208 212 197 178 137 184 235 51 120 148 222 158 257 270 261 199 197 198 211 210 182 180 191 201 205 201 198 195 191 191 194 192 193 194 193 192 193 194 190 183 181 182 184 185 186 186 188 189 188 189 190 190 190 191 191 190
267 263 271 306 294 277 264 242 224 202 190 145 173 207 230 178 225 130 157 277 261 231 205 196 197 203 215 194 183 195 201 198 199 200 197 193 191 190 193 193 193 190 189 188 187 185 186 187 185 184 183 187 188 189 187 187 188 191 190 191 191 189 189
261 261 258 260 248 244 281 258 232 190 203 200 213 203 178 183 210 220 264 262 267 283 219 231 233 227 218 183 179 195 207 202 201 198 194 192 194 197 193 190 189 188 185 181 179 183 186 187 186 186 187 187 188 188 187 186 190 189 189 190 189 188 190
317 290 271 246 29 40 13 336 301 228 211 209 194 85 145 197 203 191 171 242 260 265 341 271 320 279 250 213 194 201 203 200 198 201 195 188 191 191 189 187 187 182 175 176 183 186 187 189 189 186 186 188 188 187 186 187 191 188 188 187 188 189 190
222 212 207 188 345 335 308 262 289 306 232 199 150 190 181 206 235 167 199 240 253 274 298 295 284 295 280 252 215 212 206 193 196 195 189 188 187 190 187 184 176 175 178 184 187 185 186 189 189 187 187 187 187 186 188 188 186 184 187 186 189 189 191
255 302 300 268 289 312 291 294 306 293 302 262 194 121 158 206 195 188 222 223 263 276 269 269 269 238 272 278 194 205 207 205 194 186 184 183 186 187 185 180 179 177 178 185 187 185 187 189 189 187 186 186 185 185 186 187 185 184 185 185 188 190 191
252 264 276 288 290 274 268 269 279 284 282 282 228 187 212 147 116 224 243 194 225 252 257 256 258 280 285 264 226 208 200 190 187 187 183 181 183 183 180 177 174 177 183 186 184 185 187 189 188 187 186 186 185 184 186 185 183 183 183 185 187 190 191
280 278 277 275 272 253 258 264 264 276 277 275 249 217 180 144 198 217 223 190 211 245 249 251 252 238 248 232 214 205 197 187 183 177 178 181 182 176 174 179 179 181 184 185 184 185 187 186 185 186 185 186 183 184 185 185 185 187 182 184 187 189 191
292 275 261 256 249 258 261 262 264 257 258 257 248 239 170 178 205 200 191 188 217 235 246 253 266 244 239 229 243 278 217 184 180 177 179 182 180 175 177 181 183 185 186 184 184 184 184 184 186 185 186 186 187 186 187 186 187 185 179 186 187 190 194
297 286 275 266 295 293 288 271 316 312 276 245 239 226 196 180 213 227 212 198 232 253 267 273 294 302 296 164 163 207 197 186 180 177 179 182 182 179 181 180 182 186 186 186 184 182 183 185 186 187 189 188 187 189 189 187 188 184 181 184 188 191 195
298 303 333 324 326 310 255 309 356 348 338 284 204 177 309 174 188 194 145 210 251 272 287 249 13 38 13 349 261 236 216 190 180 177 178 180 180 180 182 182 184 185 184 179 179 183 185 186 187 188 187 186 186 194 190 189 186 180 183 185 188 191 193
256 290 325 317 308 312 337 11 7 328 344 44 90 63 33 18 264 156 192 231 226 269 286 114 22 52 20 14 3 307 287 233 187 182 181 181 180 180 180 182 183 179 179 181 183 185 183 185 188 190 185 184 191 192 189 188 179 181 184 184 186 191 193
284 312 313 301 354 153 244 177 36 347 21 24 55 35 12 354 19 243 230 254 283 298 343 309 95 70 62 48 14 28 200 222 219 204 188 181 179 178 179 181 180 182 181 181 182 181 182 187 191 188 185 188 192 188 184 178 182 183 182 185 187 193 193
288 308 316 104 141 199 143 96 45 360 338 14 52 68 33 16 11 7 359 349 351 44 53 36 104 110 99 62 42 26 16 28 117 151 131 150 166 172 175 177 180 178 178 176 172 176 186 187 182 175 187 190 166 167 176 182 185 182 185 186 190 193 193
304 316 339 164 189 278 328 121 5 0 357 27 346 28 20 17 12 0 353 331 341 65 66 56 5 83 87 60 40 26 23 25 41 78 84 107 115 122 138 139 146 151 161 170 174 180 172 162 169 177 180 170 170 181 178 181 183 186 186 188 192 191 192
215 299 305 252 311 338 4 6 359 352 339 333 348 350 11 6 0 1 347 340 340 340 318 313 243 303 51 54 36 12 20 25 37 64 63 80 94 98 99 109 113 116 122 124 127 121 133 152 156 165 152 160 169 167 174 183 181 186 185 190 193 191 192
56 0 326 335 58 203 287 326 292 271 258 277 277 267 5 1 0 358 358 355 337 344 346 317 309 302 57 40 30 3 12 19 37 51 59 65 74 83 94 92 91 96 97 99 104 118 122 130 152 151 152 160 163 169 179 178 179 186 188 194 193 191 194
335 322 288 261 265 244 38 326 315 310 307 277 305 227 49 357 351 354 350 357 355 355 355 337 339 108 75 50 37 4 11 26 31 49 48 58 65 69 72 90 95 89 90 95 94 88 88 83 63 166 164 164 164 174 175 179 183 189 195 196 193 192 194
219 244 284 279 246 288 322 320 319 314 310 320 202 110 41 346 336 350 349 360 6 360 5 4 46 80 107 90 36 9 17 32 36 45 43 42 54 63 70 69 82 90 91 83 71 71 69 58 54 109 145 155 166 171 177 178 188 198 200 198 197 195 195
245 240 262 301 339 299 315 320 312 310 307 290 73 76 0 324 334 352 358 7 10 8 22 10 69 49 65 74 61 38 30 36 36 38 41 43 44 59 64 72 77 78 76 80 83 79 77 66 55 69 109 121 137 152 158 177 202 209 204 196 200 198 198
237 214 182 220 202 231 322 328 320 323 336 53 55 23 345 321 330 350 9 13 5 1 15 30 56 69 66 60 53 45 35 36 33 33 37 39 41 46 54 64 72 84 82 81 78 70 62 61 60 65 79 83 87 93 102 119 263 278 242 207 182 179 188
318 229 253 21 1 319 7 321 335 15 43 42 347 319 342 329 343 358 11 18 8 3 12 9 39 52 51 47 46 45 37 34 32 29 31 33 35 34 36 52 56 77 80 75 72 72 63 62 60 63 74 76 73 72 64 16 296 282 242 216 205 190 188
308 4 45 33 316 305 348 352 44 41 50 342 354 357 335 346 354 2 6 10 9 6 19 9 28 40 46 40 35 40 37 31 28 31 32 30 26 33 36 43 49 65 78 76 73 67 65 64 65 63 70 72 69 61 30 324 316 300 287 226 197 198 198
4 331 40 347 345 54 22 26 37 29 23 16 24 17 3 348 349 346 5 3 1 10 8 24 22 31 31 38 32 39 30 29 25 27 27 28 26 23 29 34 34 45 66 74 73 65 57 57 55 58 61 67 54 37 352 349 346 339 323 236 189 201 204
313 358 52 40 14 27 44 40 40 25 4 18 28 26 1 347 342 347 350 352 0 6 9 18 19 26 17 25 22 26 25 26 20 20 20 20 20 21 21 22 28 40 48 57 63 62 50 45 53 55 54 60 55 11 334 360 351 336 329 313 182 205 206
346 13 352 31 342 336 57 58 45 36 10 359 0 11 23 345 339 345 346 347 1 10 14 12 8 8 8 21 24 22 20 20 18 15 16 13 16 17 17 6 14 34 44 48 52 57 52 32 41 42 48 50 49 14 13 359 4 348 336 308 230 199 198
266 276 321 322 311 310 123 104 57 42 20 350 0 345 350 341 326 338 340 342 8 10 14 7 0 360 2 8 5 10 19 21 11 8 8 6 6 6 11 12 15 36 47 51 54 55 52 31 37 40 41 38 22 15 9 12 1 6 6 347 237 230 194
276 283 263 352 328 353 159 110 89 53 41 6 344 341 333 334 348 342 344 353 359 8 9 359 6 358 353 358 358 2 357 3 10 3 356 357 1 1 8 359 9 12 34 54 51 60 41 33 48 41 30 15 14 16 2 9 8 26 13 352 43 67 146
287 245 47 23 355 305 280 156 75 52 34 21 347 329 325 326 342 344 353 348 351 357 4 8 358 2 338 344 352 360 353 352 353 355 353 351 354 358 356 359 9 3 355 29 51 45 23 28 41 41 23 5 353 357 351 7 26 41 24 4 12 31 68
282 302 318 315 292 277 268 282 324 52 26 6 338 316 314 313 316 345 355 357 352 346 342 5 2 346 341 326 339 354 356 344 340 352 356 347 345 345 352 3 6 4 341 331 66 41 10 23 50 51 34 5 357 350 351 351 34 62 55 28 359 46 90
276 280 282 281 268 268 284 286 296 309 326 320 296 295 297 296 298 335 346 356 349 331 333 335 348 330 330 321 326 339 340 344 347 340 346 337 319 315 327 350 350 352 341 307 351 87 265 78 74 56 33 16 348 343 349 346 0 73 70 64 331 265 126
272 274 277 274 269 268 268 276 278 271 254 232 286 286 288 257 267 280 277 1 295 312 319 323 325 327 325 319 314 315 332 329 332 338 331 328 334 339 330 342 347 337 313 293 281 291 30 43 51 45 38 359 349 347 355 356 9 61 59 73 56 320 192